Simultaneous Nadir Overpasses (SNOs) Predictions

Prediction of SNOs between GOES-16 and TERRA Satellite Orbit:

Table of predicted SNOs for the next 14.0 days since TLE Epoch: 10/24/2020
Index Date Time (GOES-16) GOES-16 Lat,Lon TERRA Lat,Lon Distance(km) Time Diff (sec)
1 10/24/2020 15:29:56 -0.02, -75.18 -0.03, -75.26 7.95 80
2 10/26/2020 15:20:24 -0.02, -75.19 -0.66, -72.30 329.21 80
3 10/27/2020 03:41:48 0.02, -75.17 -0.45, -77.49 262.75 80
4 10/29/2020 03:26:56 0.02, -75.19 0.18, -74.53 75.06 80
5 10/31/2020 03:14:44 0.02, -75.20 0.81, -71.57 413.38 80
6 10/31/2020 15:35:59 -0.02, -75.23 0.31, -76.73 170.47 80
7 11/02/2020 15:26:27 -0.01, -75.25 -0.33, -73.77 168.37 80
8 11/03/2020 03:47:51 0.01, -75.24 -0.77, -78.96 422.97 80
9 11/05/2020 03:35:39 0.01, -75.26 -0.13, -76.00 83.85 80
10 11/07/2020 03:20:46 -0.00, -75.29 0.45, -73.04 255.63 80
